Flag for Norway Weather past 2 weeks in Egersund, Norway

Now
33 °F

Chilly.


Feels Like: 33 °F
Forecast: 37 / 42 °F
Wind: 1 mph from Northwest

Location: Ualand-Bjuland

Current Time: Mar 31, 2015 at 1:45:31 AM

Latest Report: Mar 31, 2015 at 1:00 AM


Visibility: N/A

Pressure: 29.18 "Hg

Humidity: 94%

Dew point: 32 °F

Location of EgersundLocation

Historic Weather in Egersund — Graph

°F

Egersund temperature yesterday

Maximum temperature yesterday: 45 °F (at 1:00 PM)
Minimum temperature yesterday: 33 °F (at 4:00 AM)
Average temperature yesterday: 38 °F

Past Weeks' High & Low Weather Summary

 TemperatureHumidityPressure
High51 °F (Mar 18, 3:00 PM)100% (Mar 30, 5:00 AM)30.72 "Hg (Mar 30, 5:00 AM)
Low27 °F (Mar 19, 6:00 AM)28% (Mar 21, 3:00 PM)29.00 "Hg (Mar 29, 8:00 PM)
Average38 °F80%29.99 "Hg
* Reported Mar 15 11:00 PM — Midnight between Mar 30 and Mar 31, Egersund, Weather by CustomWeather, © 2015

Note: Actual official high and low records may vary slightly from our data, if they occured in-between our weather recording intervals... More about our weather records

Advertising

Egersund weather history for previous 24 hours

 ConditionsComfort  
Time TempWeatherWind HumidityBarometerVisibility
12:00 AM
Tue, Mar 31
31 °FChilly.1 mph96%29.21 "HgN/A
11:00 PM
Mon, Mar 30
34 °FChilly.1 mph91%29.23 "HgN/A
10:00 PM35 °FChilly.1 mph87%29.26 "HgN/A
9:00 PM39 °FChilly.2 mph73%29.29 "HgN/A
8:00 PM38 °FPartly sunny.2 mph78%29.29 "Hg37 mi
7:00 PM40 °FQuite cool.3 mph72%29.29 "HgN/A
6:00 PM38 °FChilly.1 mph80%29.29 "HgN/A
5:00 PM42 °FQuite cool.3 mph67%29.26 "HgN/A
4:00 PM42 °FQuite cool.3 mph79%29.23 "HgN/A
3:00 PM42 °FQuite cool.3 mph77%29.21 "HgN/A
2:00 PM40 °FSprinkles. Overcast.8 mph83%29.21 "Hg31 mi
1:00 PM45 °FQuite cool.6 mph60%29.18 "HgN/A
12:00 PM43 °FQuite cool.6 mph64%29.15 "HgN/A
11:00 AM41 °FQuite cool.5 mph70%29.12 "HgN/A
10:00 AM40 °FChilly.5 mph78%29.09 "HgN/A
9:00 AM35 °FChilly.1 mph96%29.09 "HgN/A
8:00 AM33 °FScattered clouds.1 mph97%29.06 "Hg47 mi
7:00 AM33 °FChilly.1 mph100%29.03 "HgN/A
6:00 AM33 °FChilly.1 mph99%29.00 "HgN/A
5:00 AM33 °FChilly.1 mph100%29.00 "HgN/A
4:00 AM33 °FChilly.2 mph99%29.00 "HgN/A
3:00 AM34 °FChilly.No wind98%29.00 "HgN/A
2:00 AM34 °FChilly.1 mph98%29.00 "HgN/A
1:00 AM35 °FChilly.1 mph97%29.00 "HgN/A
Weather by CustomWeather, © 2015

See weather overviewHow to use our weather pages